TimeCST,TemperatureF,Dew PointF,Humidity,Sea Level PressureIn,VisibilityMPH,Wind Direction,Wind SpeedMPH,Gust SpeedMPH,PrecipitationIn,Events,Conditions,WindDirDegrees,DateUTC
12:51 AM,46.0,37.9,73,30.25,10.0,North,6.9,-,N/A,,Clear,10,2012-12-13 06:51:00
1:51 AM,46.0,39.0,76,30.24,10.0,NNE,8.1,-,N/A,,Clear,20,2012-12-13 07:51:00
2:51 AM,45.0,37.9,76,30.24,10.0,NNE,6.9,-,N/A,,Clear,20,2012-12-13 08:51:00
3:51 AM,48.0,42.1,80,30.23,10.0,NE,6.9,-,N/A,,Clear,40,2012-12-13 09:51:00
4:51 AM,48.9,43.0,80,30.22,10.0,NNE,9.2,-,N/A,,Clear,30,2012-12-13 10:51:00
5:51 AM,50.0,44.6,82,30.23,10.0,NE,10.4,-,N/A,,Clear,40,2012-12-13 11:51:00
6:51 AM,51.1,46.0,83,30.25,10.0,NE,8.1,-,N/A,,Partly Cloudy,40,2012-12-13 12:51:00
7:51 AM,54.0,48.0,80,30.26,10.0,NNE,5.8,-,N/A,,Partly Cloudy,30,2012-12-13 13:51:00
8:51 AM,57.9,50.0,75,30.27,10.0,NE,10.4,-,N/A,,Overcast,50,2012-12-13 14:51:00
9:51 AM,62.1,51.1,67,30.28,10.0,ENE,5.8,-,N/A,,Mostly Cloudy,60,2012-12-13 15:51:00
10:51 AM,68.0,52.0,56,30.27,10.0,East,11.5,-,N/A,,Overcast,90,2012-12-13 16:51:00
11:51 AM,70.0,48.9,47,30.26,10.0,East,13.8,-,N/A,,Overcast,100,2012-12-13 17:51:00
12:51 PM,70.0,50.0,49,30.22,10.0,East,15.0,-,N/A,,Overcast,90,2012-12-13 18:51:00
1:51 PM,70.0,51.1,51,30.19,10.0,East,15.0,-,N/A,,Overcast,100,2012-12-13 19:51:00
2:51 PM,70.0,52.0,53,30.18,10.0,East,15.0,-,N/A,,Overcast,100,2012-12-13 20:51:00
3:51 PM,69.1,53.1,57,30.17,10.0,East,16.1,-,N/A,,Overcast,90,2012-12-13 21:51:00
6:51 PM,68.0,55.0,63,30.16,10.0,East,10.4,-,N/A,,Overcast,100,2012-12-14 00:51:00
7:51 PM,68.0,55.9,65,30.17,10.0,East,9.2,-,N/A,,Overcast,100,2012-12-14 01:51:00
8:51 PM,68.0,57.0,68,30.17,10.0,East,6.9,-,N/A,,Overcast,100,2012-12-14 02:51:00
9:51 PM,68.0,57.9,70,30.17,10.0,East,6.9,-,N/A,,Overcast,100,2012-12-14 03:51:00
10:51 PM,69.8,57.2,64,30.16,10.0,ESE,6.9,-,N/A,,Overcast,120,2012-12-14 04:51:00
11:51 PM,70.0,59.0,68,30.15,10.0,ESE,10.4,-,N/A,,Overcast,120,2012-12-14 05:51:00